Dewpoint
-2 -0 -2 -2 1 0 2 2 5 6 5 1 -3 -3 -6 -12 -18 -12 -14 -19 -17 -6 -6 -6 -6 -6 -5 -5 -4 -4 -3 -2 -3 -1 -2 -1 -1 -1 -0 -1 1 2 3 4 3 4 4 -2 -2 -1 -0 -1 -1 1
-2 -1 -2 0 -1 2 2 3 4 6 4 1 -2 -2 -12 -12 -16 -12 -17 -20 -16 -13 -5 -4 -6 -7 -5 -4 -4 -4 -4 -5 -3 -1 -1 -2 -1 -1 -2 0 -0 1 3 3 5 3 -2 -2 -2 -3 -2 -3 -1 2
-2 -1 -2 -4 -1 2 2 4 5 6 3 2 1 -5 -14 -14 -14 -17 -18 -18 -17 -9 -4 -3 -3 -6 -6 -5 -4 -3 -4 -4 -3 -3 -3 -3 -2 -3 -2 -2 -2 0 1 2 1 -1 -0 -1 -2 -1 -2 -2 -1 0
-1 -2 -4 -2 -1 1 1 3 5 4 2 -0 -5 -10 -12 -16 -16 -17 -18 -17 -12 -6 -3 -2 -4 -5 -5 -6 -5 -2 -3 -4 -3 -3 -3 -2 -2 -4 -2 -3 -3 -4 -5 -2 -0 -2 -1 -1 -1 -1 -0 -1 -2 -2
-3 -2 -2 -5 -3 1 1 3 5 3 1 -0 -5 -9 -13 -16 -17 -16 -15 -13 -12 -5 -2 -3 -3 -6 -8 -7 -6 -4 -3 -4 -3 -2 -3 -3 -5 -4 -5 -5 -4 -6 -7 -5 -4 -5 -2 -1 -3 -0 1 1 -0 -1
-5 -2 -2 -2 -1 2 1 3 5 3 2 -2 -5 -11 -14 -15 -13 -13 -10 -11 -12 -9 -5 -2 -3 -6 -6 -6 -6 -3 -3 -4 -4 -2 -3 -4 -5 -5 -2 -3 -7 -8 -9 -8 -5 -4 -4 -5 -1 0 0 1 1 0
-9 -3 -6 -0 1 1 3 3 4 3 2 -1 -5 -7 -12 -12 -13 -10 -5 -8 -12 -10 -6 -2 -3 -6 -5 -3 -3 -3 -3 -3 -2 -2 -3 -5 -4 -4 -2 -3 -7 -7 -5 -4 -5 -8 -5 -5 -3 -5 0 1 1 1
-9 -5 -4 1 2 3 3 3 3 2 1 -2 -6 -8 -7 -7 -7 -5 -5 -7 -8 -9 -4 -1 -3 -6 -5 -3 -2 -4 -3 -3 -3 -2 -2 -4 -4 -3 -3 -5 -6 -5 -1 -2 -4 -7 -6 -2 -1 -1 1 1 1 1
-6 -3 -3 1 2 3 3 3 3 1 -1 -2 -4 -4 -4 -5 -4 -3 -3 -4 -6 -5 -2 -2 -3 -2 -4 -3 -2 -3 -4 -2 -2 -3 -4 -3 -3 -2 -4 -5 -1 -1 -1 -1 -3 -4 -4 -3 -2 2 2 1 1 1
-6 -3 -1 2 3 2 2 3 2 0 -0 -0 -1 -4 -1 -2 -2 -4 -4 -6 -6 -5 -4 -2 -4 -3 -3 -3 -2 -2 -2 -1 -1 -3 -4 -3 -3 -5 -5 -2 -1 -2 -2 -2 -2 -2 -4 -4 -3 1 1 1 1 1
-4 -1 2 2 2 2 3 2 1 -0 -0 -1 -5 -2 -2 -2 -4 -3 -3 -3 -4 -3 -3 -4 -3 -3 -3 -3 -2 -4 -1 -1 -1 -1 -2 -1 -2 -1 -1 -1 -1 -1 -2 -2 -1 -3 -3 -1 0 1 1 1 1 1
-2 1 2 2 2 3 3 1 -0 0 -1 -3 -4 -2 -3 -4 -3 -2 -2 -3 -3 -3 -4 -3 -3 -3 -2 -3 -4 -3 -2 -1 -1 -2 -1 -2 -2 -1 -1 -2 -2 -1 -2 -1 -1 -1 -0 0 1 1 1 0 0 0
-0 1 2 2 2 3 1 0 0 -0 -5 -5 -2 -3 -3 -3 -2 -2 -2 -2 -2 -4 -4 -3 -3 -2 -2 -3 -4 -3 -1 -0 -1 -0 -2 -1 -1 -1 -2 -2 -2 -2 -1 -1 -1 -1 -1 -0 0 -0 0 -0 0 0
1 2 2 2 3 2 1 0 -0 -5 -4 -2 -3 -2 -1 -1 -1 -2 -2 -2 -3 -3 -3 -2 -2 -2 -2 -2 -2 -0 -2 -0 0 1 0 -0 -1 -1 -2 -2 -1 -2 -2 -1 -1 -1 -1 -1 -1 -1 -1 -1 -1 -1
2 2 2 3 2 1 0 -0 -3 -3 -2 -2 -2 -0 -1 -2 -3 -3 -3 -3 -3 -4 -2 -3 -3 -4 -1 -1 -1 -0 1 -0 -1 -1 0 -1 -1 -2 -2 -2 -2 -3 -3 -2 -2 -2 -2 -2 -1 -1 -2 -5 -13 -15
3 2 2 2 1 0 -0 -1 -2 -1 0 -4 -4 -3 -3 -3 -4 -3 -2 -2 -2 -2 -3 -3 -3 -2 -4 -3 -1 -1 -2 -2 -2 -0 -0 -1 -1 -2 -3 -2 -2 -2 -2 -2 -2 -3 -4 -9 -11 -12 -15 -19 -22 -24
2 1 1 1 -0 -1 -1 -2 -1 -0 -2 -2 -3 -3 -3 -3 -4 -3 -2 -2 -2 -3 -3 -3 -3 -4 -2 -2 -1 -2 -1 -2 -0 -1 -1 -1 -1 -2 -3 -3 -1 -2 -2 -2 -2 -2 -2 -3 -7 -9 -8 -8 -9 -13
-0 -1 0 -0 -0 -1 -1 -0 -2 -2 -3 -3 -3 -3 -3 -3 -3 -2 -3 -2 -3 -2 -3 -4 -3 -2 -2 -2 -3 -3 -0 -0 -1 -1 -1 -1 -2 -2 -3 -3 -3 -2 -2 -2 -2 -2 -2 -2 -5 -7 -8 -8 -7 -7
-2 -1 -1 -0 -1 -1 -1 -2 -3 -4 -4 -4 -3 -3 -3 -3 -3 -3 -2 -2 -2 -3 -4 -3 -4 -3 -3 -3 -1 -1 0 -1 -1 -2 -1 -2 -4 -6 -6 -6 -7 -7 -7 -6 -3 -2 -2 -1 -1 -1 -2 -6 -8 -8
-2 -1 -1 -1 -3 -3 -3 -3 -3 -3 -3 -4 -4 -4 -4 -4 -3 -3 -2 -3 -3 -4 -3 -4 -4 -4 -4 -4 -4 -3 -3 -3 -1 -2 -2 -3 -4 -5 -5 -5 -6 -7 -9 -12 -12 -12 -11 -10 -9 -5 -3 -4 -6 -7
-2 -1 -1 -1 -3 -4 -3 -4 -4 -5 -5 -5 -5 -5 -5 -4 -4 -4 -4 -3 -3 -3 -3 -4 -4 -5 -5 -6 -5 -6 -6 -5 -3 -3 -3 -3 -4 -4 -4 -6 -10 -14 -13 -13 -12 -12 -13 -14 -14 -12 -8 -5 -4 -4
-2 -2 -1 -1 -3 -3 -5 -5 -5 -5 -6 -5 -5 -5 -5 -5 -5 -5 -4 -3 -3 -5 -6 -6 -6 -6 -6 -5 -6 -6 -6 -6 -6 -4 -4 -3 -3 -5 -5 -11 -14 -16 -18 -18 -18 -15 -13 -11 -10 -10 -10 -10 -8 -7
-1 -1 -3 -3 -4 -5 -6 -5 -6 -5 -6 -6 -6 -7 -6 -6 -6 -5 -5 -5 -5 -5 -6 -6 -6 -6 -6 -6 -6 -7 -7 -7 -7 -7 -7 -5 -5 -6 -8 -16 -20 -18 -17 -17 -17 -19 -20 -20 -18 -12 -10 -8 -8 -7
-2 -3 -3 -4 -6 -6 -6 -7 -7 -6 -6 -6 -7 -8 -8 -8 -8 -8 -8 -7 -8 -8 -8 -9 -8 -8 -8 -8 -8 -8 -8 -8 -7 -7 -5 -4 -5 -9 -17 -16 -13 -13 -13 -13 -14 -16 -18 -18 -20 -21 -18 -13 -9 -7
-4 -5 -4 -7 -7 -7 -6 -6 -7 -7 -8 -8 -9 -10 -10 -9 -9 -9 -8 -8 -8 -9 -8 -8 -8 -8 -7 -11 -13 -10 -10 -11 -8 -8 -6 -6 -11 -19 -16 -13 -13 -14 -14 -13 -14 -16 -18 -18 -18 -18 -20 -20 -20 -17
-5 -7 -6 -7 -7 -6 -6 -6 -7 -7 -8 -9 -10 -11 -10 -10 -9 -9 -8 -9 -9 -9 -8 -8 -8 -9 -12 -14 -16 -17 -14 -11 -9 -9 -12 -18 -19 -16 -14 -14 -14 -14 -13 -14 -16 -17 -17 -17 -17 -17 -17 -18 -18 -18
-6 -6 -8 -8 -8 -9 -8 -9 -9 -8 -9 -9 -10 -11 -11 -10 -9 -9 -11 -11 -9 -10 -12 -12 -11 -9 -8 -8 -9 -9 -9 -12 -15 -18 -19 -18 -16 -15 -15 -14 -14 -14 -15 -16 -16 -16 -15 -15 -15 -16 -16 -16 -16 -16
-8 -8 -7 -9 -9 -9 -8 -9 -9 -9 -9 -9 -10 -10 -9 -9 -9 -12 -13 -12 -10 -11 -11 -11 -10 -10 -12 -14 -16 -18 -18 -18 -18 -18 -18 -18 -17 -16 -16 -15 -15 -14 -14 -13 -13 -13 -13 -13 -13 -14 -14 -15 -16 -15
-8 -8 -8 -9 -9 -9 -9 -9 -8 -9 -9 -9 -9 -10 -10 -12 -13 -13 -14 -15 -16 -17 -19 -20 -20 -19 -18 -17 -17 -16 -15 -15 -14 -14 -15 -16 -16 -16 -16 -16 -15 -15 -15 -15 -15 -15 -15 -15 -14 -14 -13 -13 -14 -14
-8 -8 -9 -9 -10 -8 -9 -9 -9 -9 -10 -10 -11 -13 -13 -13 -13 -13 -15 -16 -16 -17 -18 -18 -17 -15 -14 -14 -14 -14 -14 -14 -14 -14 -14 -14 -15 -15 -17 -16 -16 -15 -15 -15 -14 -15 -15 -15 -14 -13 -13 -13 -13 -13
-9 -8 -9 -9 -10 -10 -9 -10 -10 -10 -11 -12 -12 -13 -13 -14 -15 -15 -15 -15 -16 -17 -16 -14 -13 -13 -14 -14 -14 -14 -14 -14 -13 -13 -13 -14 -14 -14 -14 -14 -14 -14 -14 -14 -13 -13 -13 -13 -13 -13 -12 -12 -13 -12
-9 -11 -11 -12 -12 -11 -10 -11 -11 -11 -12 -12 -12 -12 -13 -13 -15 -17 -18 -17 -16 -13 -12 -12 -13 -13 -13 -13 -12 -12 -12 -13 -13 -14 -14 -14 -14 -14 -13 -13 -13 -13 -13 -13 -13 -12 -12 -12 -13 -13 -13 -12 -11 -12
-12 -13 -12 -11 -12 -12 -11 -12 -13 -13 -13 -13 -13 -13 -14 -15 -16 -17 -17 -15 -13 -12 -12 -13 -13 -12 -12 -12 -12 -13 -14 -14 -14 -14 -14 -13 -13 -13 -14 -14 -13 -13 -13 -13 -13 -13 -14 -14 -13 -13 -12 -12 -11 -11
Wind_Speed
23 29 24 19 24 20 23 22 44 51 50 44 41 37 32 29 30 30 22 19 11 7 8 4 5 5 5 2 0 4 2 2 2 1 1 1 2 4 3 2 2 5 4 4 4 3 3 8 4 2 1 3 2 1
25 30 23 19 16 17 21 13 45 51 46 43 38 33 33 34 32 29 23 21 14 7 8 10 9 6 8 8 5 3 2 3 5 1 1 1 2 1 5 3 2 2 2 3 3 1 4 8 6 7 10 5 4 3
26 30 24 20 17 15 11 28 47 48 47 41 36 35 33 34 34 28 22 22 16 9 10 6 2 3 4 4 11 3 3 3 3 3 3 1 1 1 2 2 4 2 4 3 5 3 5 18 9 11 9 8 7 4
30 29 21 18 22 24 14 25 43 48 44 39 36 34 35 33 30 24 24 23 13 10 6 3 5 2 1 5 11 7 8 7 5 3 2 1 1 4 3 4 2 5 6 3 5 12 17 8 16 18 19 9 6 9
32 26 22 20 23 30 20 21 53 51 45 40 37 35 34 32 26 23 20 18 13 5 6 7 5 4 4 6 7 8 8 5 3 2 1 2 2 3 3 3 3 5 3 3 4 10 7 10 22 19 15 13 8 8
34 26 22 16 22 28 19 46 57 54 48 43 37 34 32 29 26 24 7 10 13 12 8 3 4 5 7 7 7 9 7 5 3 1 2 2 2 2 2 3 7 7 8 9 6 13 11 17 14 13 17 15 10 3
35 28 21 19 10 18 33 57 59 57 50 42 38 37 33 29 27 9 8 15 14 10 7 6 4 5 7 9 6 5 5 3 3 2 2 2 3 3 2 3 6 10 13 17 18 17 15 10 11 19 15 14 7 3
34 28 25 21 24 21 45 57 57 56 51 47 41 34 30 23 18 18 19 15 13 8 6 3 3 6 10 5 4 4 4 3 4 1 1 3 2 5 4 14 19 16 18 21 15 13 15 15 17 15 11 9 4 2
32 26 29 25 23 50 62 61 61 56 53 48 39 32 26 14 8 13 15 9 7 5 5 4 5 3 11 5 4 5 3 2 6 2 2 4 3 5 7 12 17 19 13 16 17 15 13 12 13 10 10 7 2 3
30 25 30 20 26 66 64 64 61 56 51 47 40 14 7 10 20 16 5 3 4 2 3 3 6 3 9 6 4 6 4 1 2 4 5 3 4 19 15 15 17 14 11 9 10 13 9 16 15 10 8 6 4 5
28 30 37 11 65 70 67 64 60 58 53 38 14 6 25 23 7 4 4 2 2 1 3 4 4 5 4 3 3 5 2 2 2 3 2 2 3 2 8 17 13 9 8 8 7 12 12 13 15 10 6 6 5 6
33 34 22 55 71 66 67 66 65 58 31 21 22 26 18 5 4 4 2 2 2 3 6 6 5 6 5 4 3 5 2 2 3 7 2 3 2 3 11 13 12 9 6 6 6 5 8 7 6 3 5 5 5 5
34 33 34 73 70 68 70 67 56 41 35 41 11 6 6 2 3 6 7 3 3 9 9 9 5 5 4 3 2 3 3 2 8 2 3 3 4 7 9 11 12 9 6 4 7 6 5 5 3 3 4 4 4 3
35 20 70 73 71 72 70 60 46 44 39 6 6 5 4 4 3 3 3 4 5 13 21 18 8 5 4 3 2 3 4 3 3 3 5 2 2 5 6 11 10 8 5 3 4 4 3 3 3 2 2 2 2 2
33 48 78 74 76 76 63 53 45 42 7 5 4 4 3 7 7 8 11 11 10 26 21 13 6 4 2 2 2 1 3 4 4 3 2 4 2 4 5 7 8 5 5 4 2 2 3 4 3 2 2 2 3 3
47 75 75 80 77 65 58 50 38 17 5 5 5 5 9 6 3 7 13 16 23 21 15 7 3 3 3 3 3 5 3 5 3 3 6 4 1 3 5 5 5 4 3 2 3 5 7 5 5 4 3 4 4 5
74 58 81 79 67 60 52 37 19 6 5 4 4 11 7 9 9 11 16 18 22 13 2 4 5 6 1 3 3 3 4 2 8 8 3 2 1 2 3 3 3 4 3 2 3 3 4 5 3 4 5 5 6 6
60 70 81 71 66 51 37 11 7 6 5 6 4 8 6 7 18 18 15 19 14 6 8 4 5 3 4 4 3 3 4 6 6 6 4 2 1 0 2 3 4 3 3 3 3 4 5 4 4 5 7 8 8 8
66 65 66 66 52 35 8 5 6 5 6 6 13 11 8 10 10 16 20 19 11 12 9 4 3 3 3 5 1 3 8 6 3 3 4 3 3 4 3 3 5 6 7 7 6 7 9 11 11 11 11 12 12 11
61 62 56 42 31 14 7 6 6 6 4 4 8 8 7 7 12 14 18 15 13 6 2 3 4 5 4 4 5 5 4 5 7 6 5 5 6 6 6 8 11 13 15 15 14 14 15 15 13 13 14 15 15 13
57 44 41 26 23 13 8 5 6 5 8 6 13 5 5 11 10 9 9 13 5 4 4 10 12 9 9 10 8 7 7 7 8 8 7 8 7 7 8 11 14 12 11 10 11 11 13 14 13 13 14 15 14 14
41 40 32 14 9 7 8 6 8 8 5 8 7 5 6 4 5 6 7 5 5 9 9 9 11 10 12 15 16 16 16 16 16 16 15 14 13 10 10 9 5 4 6 8 10 10 11 11 11 11 12 13 15 15
32 26 11 7 6 6 5 5 4 4 3 4 4 4 2 3 5 10 3 6 9 13 18 21 21 19 18 18 18 17 16 16 17 17 16 16 16 13 9 5 1 3 6 8 11 13 13 13 13 13 11 11 11 12
18 7 5 4 4 4 5 3 4 6 5 3 2 3 2 4 7 2 3 5 8 6 6 7 8 7 8 9 8 8 10 13 13 10 8 7 7 7 6 5 1 4 8 12 15 16 16 15 14 12 12 12 11 11
6 4 4 4 4 5 4 4 2 2 3 2 3 2 3 5 2 2 3 4 4 1 1 3 4 4 2 1 4 4 3 6 5 6 8 8 7 9 9 7 6 9 14 18 18 19 18 16 15 15 14 14 13 13
5 3 3 2 3 2 3 4 3 4 3 3 2 4 3 2 2 4 3 2 3 3 4 6 6 5 5 3 2 5 6 4 3 3 5 6 9 10 11 15 18 19 22 23 22 21 19 19 19 19 18 18 17 18
4 2 3 4 5 7 5 5 4 3 3 4 4 4 3 3 5 3 3 4 4 5 6 8 9 7 4 3 2 2 2 2 3 4 6 8 12 15 18 21 23 24 23 21 21 22 23 23 22 22 21 21 21 21
3 5 4 5 4 3 4 3 4 4 3 6 10 3 8 7 4 2 3 6 7 7 7 6 5 4 5 5 5 4 4 5 6 8 9 12 14 16 16 17 19 22 24 24 24 24 25 25 24 23 22 20 19 18
3 8 7 3 3 2 2 3 3 3 7 12 4 3 3 3 2 3 7 9 9 6 4 3 5 5 4 3 2 3 6 8 10 12 13 14 16 18 18 18 19 21 24 25 25 27 28 28 28 27 25 23 20 18
5 8 4 3 3 1 2 3 5 9 8 8 4 4 3 2 3 5 9 9 5 6 6 5 5 5 3 2 4 7 10 13 14 15 16 16 18 20 22 23 24 24 25 26 25 23 23 25 25 26 27 27 25 23
12 5 4 3 3 2 6 8 8 7 5 3 2 2 2 2 1 6 9 11 10 8 7 8 6 3 4 7 11 14 17 18 19 20 20 20 20 21 23 24 25 26 26 26 26 25 24 23 22 22 23 24 23 22
4 3 5 3 1 6 8 3 4 3 3 2 1 2 1 3 3 3 7 10 11 11 8 5 4 6 10 14 18 20 20 19 18 18 19 21 22 23 23 23 22 22 22 21 21 22 22 24 24 23 22 21 19 18
5 5 5 6 4 2 5 5 3 3 2 2 1 1 2 2 4 4 6 11 12 10 7 5 7 11 16 19 17 15 15 15 17 19 20 22 24 24 24 23 19 19 19 18 17 20 23 25 24 22 20 18 17 16
Wind_Direction
249 260 275 283 286 247 241 271 203 203 183 178 182 182 183 198 202 194 200 187 173 127 133 123 125 122 119 144 157 124 155 212 220 174 167 302 292 4 303 319 205 186 189 198 190 247 261 126 97 162 89 72 63 194
240 257 265 270 268 229 256 247 198 191 180 178 178 179 184 195 192 183 185 180 172 136 135 147 152 150 166 153 122 117 68 67 40 342 179 308 282 339 359 293 204 291 27 326 251 15 340 209 319 325 357 320 9 28
236 250 260 256 247 206 354 204 200 180 178 170 178 187 182 183 181 184 187 169 163 116 107 97 98 168 190 192 152 132 142 107 103 80 25 57 246 124 282 290 314 116 13 264 352 101 9 334 346 29 12 319 301 315
233 245 248 252 228 218 227 195 208 174 174 174 178 176 179 178 180 185 178 169 159 125 115 120 156 158 191 151 162 141 142 117 106 81 27 348 307 44 295 311 294 277 331 288 277 294 310 72 29 8 348 334 305 286
231 236 234 244 227 224 239 209 193 173 174 174 177 178 177 176 174 170 173 167 173 150 116 121 160 140 138 145 159 165 129 122 136 147 228 249 291 343 274 267 252 226 250 216 222 5 336 328 340 354 350 344 324 289
225 227 230 227 213 215 272 191 185 172 171 172 175 172 169 165 163 156 119 150 166 162 110 111 115 130 131 115 121 143 153 156 161 193 226 257 303 318 308 278 284 296 321 323 339 329 312 300 319 322 341 336 332 299
222 220 220 185 211 221 190 184 182 169 169 169 169 164 165 167 166 165 141 153 159 150 99 112 111 144 140 120 112 129 154 163 188 210 236 265 201 197 258 251 262 330 326 316 313 311 300 288 298 303 326 330 324 254
215 212 198 181 179 185 186 185 175 167 164 164 162 161 159 159 149 117 125 131 137 119 108 109 96 148 166 150 131 168 155 178 191 275 225 232 201 218 252 254 274 306 305 297 303 289 270 294 298 294 309 322 304 287
207 207 197 182 188 175 182 181 168 164 160 157 154 153 140 138 118 127 127 126 129 108 114 129 141 173 162 137 130 155 166 189 158 230 217 176 213 227 236 283 320 312 305 295 290 296 303 295 309 310 312 312 238 255
198 195 184 167 179 171 176 173 165 160 157 148 145 144 105 121 128 130 102 79 66 69 100 105 113 121 164 150 158 146 179 240 209 202 166 216 257 258 280 321 321 315 314 303 286 281 310 315 313 301 324 293 256 230
189 183 177 173 168 165 173 164 157 154 147 139 144 81 132 134 123 86 84 96 130 82 137 113 118 125 135 156 141 198 153 167 235 175 211 226 258 178 322 328 325 321 320 315 289 274 281 286 293 300 292 279 242 221
180 176 174 166 168 170 165 157 155 149 153 152 132 129 131 122 91 104 83 99 200 175 144 123 110 104 113 128 135 156 196 154 246 137 219 246 233 323 325 328 332 331 313 328 317 312 313 318 310 281 214 209 206 201
172 169 166 166 170 167 159 155 153 148 143 127 109 105 147 130 103 180 180 202 189 159 158 141 119 121 115 133 138 154 190 213 126 221 237 221 124 332 332 332 334 334 318 291 291 298 315 338 331 261 247 222 227 243
175 156 165 169 168 160 156 155 148 142 137 104 133 131 190 172 217 163 165 135 127 144 139 131 124 131 137 173 163 194 195 155 236 233 213 143 34 318 338 337 341 346 333 319 299 308 328 343 354 4 10 359 351 314
172 161 160 163 159 155 154 148 147 143 99 111 145 123 150 110 93 129 125 118 130 143 138 110 97 121 143 146 197 215 170 234 221 224 134 181 287 347 336 349 345 11 29 30 11 24 64 61 42 34 43 32 331 316
163 154 158 157 154 154 148 143 141 138 62 66 72 93 122 96 108 130 132 127 141 137 125 105 123 154 174 179 158 209 209 226 228 159 172 203 120 7 337 347 347 358 5 68 128 125 102 57 22 4 356 347 339 336
147 146 155 154 151 144 138 135 128 68 83 77 66 109 103 100 131 142 145 147 158 141 112 130 139 187 134 177 214 217 214 194 161 178 202 133 40 355 342 338 17 319 322 93 112 129 119 103 17 335 337 340 338 332
139 145 155 151 148 134 134 121 88 78 77 85 94 116 85 109 135 140 152 153 155 144 152 153 121 167 185 196 225 227 141 175 178 208 203 188 241 141 52 36 38 21 312 274 276 256 284 283 276 295 299 301 307 312
135 139 143 147 137 130 104 69 69 89 77 95 107 104 100 115 127 153 153 162 159 158 141 135 139 191 215 230 223 172 180 180 200 201 192 220 247 235 259 309 327 323 319 311 310 300 290 286 283 280 282 290 293 296
134 141 137 132 138 112 83 72 82 88 91 106 124 105 103 119 128 145 154 158 153 151 155 199 208 204 209 219 238 227 236 232 223 230 244 250 253 253 269 299 309 306 301 294 288 280 276 278 283 286 282 284 286 290
122 127 135 130 81 71 83 83 75 95 117 103 126 108 101 130 128 140 158 173 183 213 239 236 231 236 237 257 257 262 275 267 256 248 239 237 250 263 287 303 307 308 310 313 309 305 297 293 286 279 278 282 287 286
122 136 133 106 68 71 76 68 112 110 89 128 117 103 119 118 137 155 153 189 233 231 225 243 257 265 261 263 270 271 270 263 259 247 247 253 256 279 291 294 304 337 348 349 352 354 354 338 322 312 300 291 285 286
120 126 67 62 74 62 98 100 87 82 104 144 127 100 108 123 164 155 194 230 242 244 242 251 261 269 271 271 271 268 266 263 261 257 254 254 262 264 268 255 308 42 22 5 355 350 341 333 329 328 322 312 305 300
109 69 72 80 82 102 127 75 96 106 116 160 126 108 132 138 152 174 240 241 241 247 247 258 261 267 272 278 285 281 260 252 251 251 251 237 239 238 209 177 201 325 332 335 338 336 328 321 315 311 311 313 314 311
88 43 94 75 111 116 110 128 123 118 116 155 115 134 170 153 148 187 234 260 259 262 265 250 220 211 215 69 13 349 272 233 244 225 219 250 227 200 200 227 272 306 314 321 325 323 322 317 310 302 299 302 304 300
76 30 53 111 125 126 152 126 155 141 123 119 84 131 141 140 131 235 225 229 188 121 123 134 146 153 148 146 82 69 77 101 150 182 198 209 209 226 252 272 285 297 308 312 313 312 312 314 312 305 296 289 291 292
112 124 93 95 112 118 95 78 102 111 122 151 161 161 131 146 229 243 195 178 156 146 146 150 148 149 158 181 233 264 268 268 263 251 244 248 257 268 277 285 293 298 300 301 302 301 304 306 305 303 299 290 284 284
101 140 136 133 106 95 120 119 145 178 166 152 141 165 170 183 221 157 152 151 151 148 153 166 185 209 229 244 261 284 301 307 301 294 288 284 284 284 287 290 291 292 293 294 294 295 297 298 299 300 300 300 296 285
88 130 121 67 81 93 131 150 166 145 151 168 142 167 205 186 162 151 153 153 156 162 180 229 238 231 215 211 262 310 321 322 320 315 310 304 300 296 296 294 292 291 292 293 294 294 293 292 291 289 287 285 285 284
148 155 105 113 127 127 125 123 129 148 147 152 142 128 136 143 164 180 186 191 211 238 252 229 207 197 204 254 303 313 316 318 316 311 306 302 301 302 302 302 302 301 300 299 297 293 289 288 286 283 280 281 282 279
144 138 107 80 95 120 137 130 133 136 139 151 162 93 75 49 249 225 217 220 231 221 195 189 194 226 283 305 313 313 312 311 309 306 303 303 304 303 302 301 301 300 299 299 299 300 300 295 291 285 279 276 272 274
139 130 132 112 113 127 128 114 110 94 107 126 90 175 164 203 234 235 219 211 197 187 187 206 245 289 305 312 313 312 308 307 307 309 309 308 307 306 306 305 307 306 304 302 302 303 302 301 299 294 288 280 275 267
112 103 95 109 116 145 143 120 98 92 106 120 123 169 197 227 246 222 204 192 190 193 210 252 295 310 313 316 314 312 312 312 312 314 315 317 317 318 317 318 317 314 312 311 312 311 307 304 300 295 286 275 268 260
Height
1343 1344 1346 1344 1347 1348 1350 1349 1353 1362 1371 1382 1394 1404 1413 1421 1427 1434 1439 1442 1445 1448 1457 1460 1461 1464 1467 1470 1471 1476 1479 1478 1477 1476 1476 1471 1468 1467 1468 1457 1457 1463 1466 1462 1463 1464 1458 1444 1445 1447 1447 1445 1444 1444
1337 1338 1341 1343 1342 1344 1347 1346 1352 1361 1372 1382 1392 1402 1410 1420 1426 1432 1437 1439 1443 1446 1457 1460 1461 1463 1465 1468 1470 1474 1477 1476 1478 1478 1480 1480 1477 1475 1471 1474 1456 1461 1462 1462 1457 1449 1447 1446 1446 1445 1444 1445 1445 1445
1328 1331 1334 1334 1336 1342 1340 1342 1351 1361 1372 1382 1392 1402 1409 1416 1423 1429 1433 1436 1441 1447 1459 1461 1463 1464 1466 1467 1469 1474 1477 1477 1479 1480 1481 1481 1482 1477 1479 1471 1464 1459 1463 1460 1458 1446 1448 1447 1445 1444 1443 1444 1444 1444
1320 1323 1325 1329 1332 1339 1341 1349 1351 1359 1373 1384 1395 1401 1408 1415 1422 1428 1431 1435 1439 1445 1453 1464 1464 1465 1466 1467 1470 1471 1474 1477 1480 1481 1482 1482 1481 1477 1476 1472 1470 1465 1463 1459 1460 1452 1445 1445 1445 1445 1443 1442 1442 1442
1312 1317 1321 1324 1328 1333 1336 1345 1352 1360 1374 1385 1394 1401 1408 1415 1422 1427 1431 1434 1437 1443 1450 1462 1464 1466 1467 1468 1470 1472 1475 1478 1480 1482 1482 1483 1480 1480 1476 1472 1469 1460 1456 1457 1457 1454 1455 1450 1448 1445 1444 1443 1441 1441
1305 1310 1315 1319 1324 1330 1334 1341 1351 1361 1374 1384 1395 1403 1409 1416 1422 1426 1431 1435 1436 1439 1444 1460 1466 1467 1468 1469 1471 1474 1476 1479 1480 1481 1481 1481 1481 1483 1481 1475 1457 1455 1454 1454 1453 1451 1451 1450 1449 1447 1444 1443 1440 1439
1299 1305 1309 1314 1321 1326 1331 1339 1350 1361 1373 1385 1395 1402 1409 1415 1420 1423 1426 1431 1435 1439 1442 1460 1465 1468 1470 1471 1474 1476 1477 1478 1480 1480 1481 1481 1481 1482 1480 1473 1453 1452 1453 1453 1453 1452 1449 1448 1447 1445 1442 1440 1440 1439
1290 1298 1304 1311 1319 1323 1327 1339 1351 1362 1375 1386 1396 1404 1410 1416 1422 1425 1427 1431 1435 1438 1444 1453 1464 1468 1469 1471 1474 1476 1477 1478 1478 1479 1480 1480 1480 1479 1473 1456 1454 1453 1452 1450 1447 1447 1446 1445 1444 1443 1440 1438 1438 1439
1284 1294 1301 1307 1316 1322 1328 1338 1351 1364 1376 1386 1395 1405 1413 1418 1422 1426 1430 1433 1435 1441 1443 1448 1458 1465 1467 1469 1472 1475 1476 1477 1477 1477 1476 1478 1473 1470 1457 1454 1453 1450 1448 1446 1445 1443 1444 1443 1441 1439 1438 1437 1437 1437
1280 1290 1296 1304 1310 1317 1327 1339 1352 1366 1378 1386 1397 1410 1418 1421 1425 1429 1433 1435 1437 1440 1442 1445 1450 1459 1463 1466 1471 1473 1474 1474 1473 1473 1474 1474 1463 1455 1455 1453 1449 1447 1444 1443 1441 1440 1440 1440 1439 1436 1435 1436 1436 1436
1277 1285 1292 1300 1305 1317 1330 1342 1355 1369 1378 1388 1399 1410 1418 1423 1427 1430 1434 1438 1442 1443 1443 1445 1448 1454 1461 1463 1465 1468 1470 1472 1472 1469 1470 1464 1458 1450 1452 1450 1447 1444 1443 1441 1441 1440 1438 1437 1436 1434 1434 1435 1435 1435
1274 1282 1291 1299 1307 1320 1331 1343 1355 1365 1376 1385 1392 1410 1419 1423 1426 1431 1436 1439 1439 1438 1441 1444 1449 1453 1459 1462 1464 1467 1467 1470 1467 1467 1467 1458 1451 1450 1449 1447 1444 1442 1441 1440 1440 1438 1438 1434 1433 1433 1432 1433 1434 1435
1273 1282 1289 1299 1310 1322 1334 1347 1358 1368 1375 1388 1398 1408 1414 1423 1426 1427 1432 1434 1433 1433 1437 1441 1449 1454 1459 1462 1463 1463 1463 1464 1466 1463 1455 1450 1447 1448 1447 1445 1442 1441 1439 1438 1437 1435 1435 1434 1432 1432 1432 1432 1432 1433
1274 1282 1292 1301 1314 1326 1338 1348 1359 1371 1380 1387 1395 1409 1407 1415 1413 1414 1416 1419 1423 1427 1433 1440 1447 1452 1457 1460 1458 1458 1458 1460 1459 1454 1445 1444 1444 1444 1445 1444 1442 1439 1437 1435 1435 1435 1434 1434 1433 1432 1432 1433 1434 1434
1278 1286 1294 1307 1318 1328 1341 1353 1364 1372 1377 1386 1390 1397 1404 1407 1411 1414 1416 1419 1423 1427 1433 1440 1447 1451 1454 1455 1454 1454 1456 1453 1448 1444 1441 1442 1441 1441 1443 1443 1442 1439 1437 1435 1434 1434 1434 1433 1434 1434 1434 1435 1435 1434
1278 1291 1301 1310 1322 1332 1344 1356 1367 1374 1381 1388 1395 1401 1405 1408 1413 1415 1418 1420 1425 1429 1434 1439 1445 1450 1449 1449 1452 1449 1445 1449 1442 1438 1440 1439 1439 1440 1441 1441 1440 1439 1438 1434 1434 1435 1434 1435 1435 1436 1436 1435 1435 1434
1283 1294 1302 1314 1327 1339 1352 1363 1373 1379 1387 1393 1399 1401 1404 1405 1409 1413 1417 1421 1426 1429 1434 1438 1442 1449 1445 1446 1446 1442 1439 1436 1436 1437 1438 1438 1437 1438 1439 1439 1438 1438 1438 1436 1434 1435 1435 1434 1435 1435 1435 1435 1434 1433
1289 1300 1307 1319 1329 1344 1360 1368 1375 1384 1392 1398 1401 1405 1406 1407 1409 1414 1418 1423 1427 1430 1433 1435 1437 1441 1441 1442 1442 1433 1432 1434 1436 1437 1437 1437 1437 1437 1438 1438 1437 1436 1437 1436 1434 1434 1434 1434 1433 1433 1433 1433 1432 1432
1298 1309 1316 1327 1338 1348 1362 1375 1380 1389 1398 1399 1403 1406 1409 1411 1414 1416 1419 1424 1427 1429 1431 1434 1436 1437 1436 1431 1430 1430 1431 1433 1434 1435 1436 1436 1436 1436 1437 1436 1435 1436 1436 1436 1434 1432 1432 1431 1430 1430 1430 1429 1429 1428
1306 1315 1326 1338 1349 1352 1366 1379 1383 1389 1397 1402 1405 1409 1412 1414 1417 1419 1422 1426 1428 1430 1431 1431 1428 1426 1428 1428 1429 1430 1431 1432 1433 1434 1434 1433 1433 1434 1435 1434 1434 1433 1432 1431 1430 1429 1428 1427 1427 1426 1426 1425 1424 1424
1318 1333 1341 1346 1350 1358 1372 1381 1388 1395 1399 1403 1408 1411 1415 1417 1418 1421 1424 1427 1428 1427 1425 1421 1422 1424 1426 1426 1427 1429 1430 1431 1431 1431 1431 1430 1431 1432 1432 1431 1430 1429 1428 1426 1425 1424 1424 1423 1422 1421 1420 1420 1420 1419
1329 1341 1348 1352 1360 1370 1379 1386 1391 1395 1400 1405 1409 1412 1416 1418 1419 1421 1424 1426 1424 1419 1418 1417 1418 1420 1421 1422 1424 1425 1426 1426 1426 1427 1426 1426 1427 1428 1428 1428 1427 1427 1426 1424 1423 1421 1421 1420 1418 1417 1416 1415 1415 1414
1343 1349 1355 1362 1369 1378 1391 1391 1393 1398 1404 1408 1410 1413 1416 1418 1419 1422 1423 1420 1416 1412 1413 1413 1414 1416 1417 1418 1418 1419 1419 1420 1420 1421 1422 1422 1423 1424 1424 1425 1426 1426 1426 1424 1422 1419 1418 1418 1416 1414 1412 1411 1410 1410
1348 1355 1365 1371 1377 1386 1390 1392 1395 1399 1405 1408 1410 1415 1416 1418 1420 1421 1420 1413 1407 1407 1408 1409 1410 1411 1413 1414 1414 1414 1414 1415 1416 1417 1419 1419 1420 1421 1422 1422 1423 1423 1423 1422 1419 1417 1416 1414 1413 1411 1410 1408 1407 1405
1358 1370 1371 1375 1378 1383 1388 1393 1396 1398 1404 1406 1409 1414 1414 1416 1418 1420 1415 1406 1404 1404 1405 1406 1408 1411 1412 1413 1413 1411 1410 1411 1412 1413 1415 1416 1418 1418 1420 1421 1421 1420 1419 1417 1415 1414 1412 1410 1409 1408 1406 1404 1403 1402
1365 1371 1372 1374 1378 1380 1385 1389 1392 1396 1399 1405 1408 1410 1411 1413 1417 1414 1406 1403 1403 1404 1405 1407 1408 1410 1411 1412 1412 1411 1411 1412 1413 1413 1413 1414 1416 1417 1417 1418 1417 1416 1414 1412 1410 1408 1407 1405 1404 1403 1401 1400 1399 1398
1367 1372 1374 1375 1377 1380 1385 1389 1391 1393 1397 1401 1404 1408 1409 1414 1412 1403 1401 1402 1403 1405 1406 1408 1409 1410 1411 1412 1412 1413 1412 1412 1413 1414 1414 1413 1414 1413 1412 1411 1410 1410 1407 1406 1404 1403 1401 1399 1398 1397 1395 1394 1393 1392
1368 1370 1373 1377 1378 1380 1384 1388 1390 1392 1392 1393 1397 1403 1402 1402 1403 1400 1400 1401 1403 1405 1407 1409 1410 1410 1411 1412 1412 1411 1410 1410 1411 1411 1411 1411 1410 1408 1406 1405 1404 1402 1400 1398 1397 1396 1394 1392 1391 1390 1388 1387 1387 1386
1368 1370 1374 1379 1379 1380 1382 1384 1385 1387 1388 1390 1393 1396 1396 1397 1398 1398 1400 1401 1403 1405 1407 1409 1409 1409 1409 1409 1409 1409 1408 1408 1407 1407 1406 1405 1403 1402 1400 1398 1397 1395 1393 1391 1389 1387 1386 1384 1383 1382 1382 1381 1381 1380
1370 1372 1374 1377 1379 1382 1383 1383 1384 1386 1388 1390 1391 1392 1394 1395 1397 1398 1399 1401 1404 1405 1406 1408 1409 1409 1408 1407 1407 1406 1405 1404 1402 1401 1399 1397 1396 1395 1393 1391 1388 1386 1383 1381 1380 1380 1379 1377 1375 1374 1373 1372 1373 1372
1369 1371 1373 1376 1379 1381 1382 1383 1385 1387 1388 1389 1390 1392 1394 1395 1396 1397 1399 1400 1402 1404 1405 1406 1407 1407 1407 1406 1404 1403 1402 1400 1398 1395 1392 1390 1388 1386 1385 1383 1380 1376 1374 1372 1370 1369 1368 1368 1367 1366 1365 1364 1364 1364
1368 1369 1371 1377 1381 1382 1382 1383 1385 1386 1388 1390 1391 1392 1394 1394 1396 1396 1396 1398 1400 1402 1403 1404 1404 1404 1404 1402 1400 1398 1396 1393 1391 1388 1385 1383 1381 1379 1376 1374 1371 1369 1366 1365 1364 1363 1362 1360 1358 1358 1356 1356 1356 1356
1368 1369 1372 1375 1379 1381 1382 1383 1386 1389 1390 1390 1392 1393 1393 1395 1393 1394 1395 1396 1400 1400 1402 1402 1401 1400 1399 1397 1394 1392 1390 1388 1385 1382 1379 1376 1373 1370 1367 1366 1364 1362 1361 1360 1359 1358 1355 1353 1351 1349 1348 1348 1349 1350